Volver al catálogo

STARLINK-31695

ActivoComunicacionesVLEO
NORAD 59376·PAYLOAD·🇺🇸 United States

Lanzado Apr 2, 2024 desde Vandenberg Space Force Base

Loading…

Próximos Pases (próximas 24 horas)

TLE

ActualizadoSource: CelesTrak SupGP

Época: Sep 15, 2026, 02:58 UTC

1 59376C 24062C   26258.12409722 -.00005914  00000+0 -17475-3 0  2589
2 59376  53.1567  92.7688 0001215  86.6069  30.2486 15.34389563    14

Sigue STARLINK-31695 en tiempo real con AllMySat

Download on the App Store